DECAYED

STARLINK-30110, 57474 (Decayed)

Orbit data source: Space-Track

STARLINK-30110, 57474 was a payload satellite owned by SpaceX/Seattle (US) in LEO that was launched on Fri, 28 Jul 2023 UTC via an FALCON 9 launch vehicle from the Air Force Eastern Test Range (AFETR). Payload-class satellites include a variety of spacecraft equipped with specific instruments for various scientific and technological missions. These include communications satellites like Starlink; space stations such as the ISS; scientific satellites like the Hubble; Earth observation satellites from companies like Planet Labs, Umbra, and HawkEye 360; GPS; miniature CubeSats for education and research; and military/defense satellites.

Not visible in the next 10 days
Identifier
57474, 2023-107T
Orbit
Decayed
Country
Flag of USUS
Related business
Manufacturer
SpaceX/Seattle
Mission
Decayed Commercial Communications
Bus & Motor
STARLINK V2M, Unknown motor
Mass
730 kg wet, ~700 kg dry
Launch date (UTC)
2023-07-28 (3 years ago)
Launch vehicle
FALCON 9
Launch site
Air Force Eastern Test Range (AFETR)
Object type
Payload
Rocket body
Debris
Shape & HBR
Box + 2 Pan, 17.7 m
Radar Cross Section
33.884 m², Large (>1 m²)

Expand to show TLE details & history
Last TLE update: 5 months ago

TLE from 5 months ago
0 STARLINK-30110
1 57474U 23107T   26036.40392421  .07254328  89620-5  11140-2 0  9992
2 57474  42.9655  51.3486 0016028 147.9782 212.2085 16.32642481141454
Epoch: 2026-02-05T09:41Z
TLE epoch observation values (Epoch: 2026-02-05T09:41:39.051Z)
Latitude
-0°
Longitude
130.37924°
Altitude
194.114 km
Speed
7.787 km/s
True Right ascension
03h 25m 23s
True Declination
0° 00' 00"
Sunlit
Object was in daylight at epoch
Visualization orbit readout
Latitude
Unknown
Longitude
Unknown
Altitude
Unknown
Speed
Unknown
Apparent Right ascension
Unknown
Apparent Declination
Unknown
Sunlit
N/A
Visualization observer readout
Local Sidereal Time
23:07:35
Azimuth
Unknown
Elevation
Unknown
Doppler factor
Unknown
Orbital elements
Apogee altitude
198.01 km
Perigee altitude
176.964 km
Semi-major axis
6,565.624 km
Eccentricity
0.0016
Inclination
42.9655°
RAAN
51.3486°
Arg. of periapsis
147.9782°
True anomaly
212.11077°
Mean anomaly
212.2085°
Eccentric anomaly
212.15962°
Mean motion
4.07971 °/min
Orbital period
88.24 mins
BSTAR
0.001114
Loading maneuver chart data...
Computing Atmospheric mass density...
Loading historical data...
Loading historical data...
Loading historical data...
Loading historical data...
Loading historical data...
Loading historical data...
Loading historical data...

Documentation

Showing up to 5 results
|